Weather History for Claremore, OK

Change the Weather History Date:

Monday, May 19, 2014

  Actual Average (KTUL) Record (KTUL)
Temperature  
Mean Temperature 70 °F 70 °F  
Max Temperature 80 °F 80 °F 96 °F (2006)
Min Temperature 59 °F 60 °F 46 °F (1968)
Cooling Degree Days 4 6  
Month to date cooling degree days 82  
Year to date cooling degree days 147  
Growing Degree Days 20 (Base 50)    
Moisture  
Dew Point 58 °F    
Average Humidity 68    
Maximum Humidity 94    
Minimum Humidity 44    
Precipitation  
Precipitation 0.00 in 0.21 in 3.91 in (1949)
Month to date precipitation 3.60  
Year to date precipitation 14.19  
Sea Level Pressure  
Sea Level Pressure 29.93 in    
Wind  
Wind Speed 15 mph (South)    
Max Wind Speed 29 mph    
Max Gust Speed 36 mph    
Visibility 9 miles    
Events      
T = Trace of Precipitation, MM = Missing Value Source: NWS Daily Summary

Daily Weather History Graph

Daily Weather History Graph

Search for Another Location

Airport:

Trip Planner

Search our weather history database for the weather conditions in past years. The results will help you decide how hot, cold, wet, or windy it might be!

Date:

Astronomy

May. 19, 2014 Rise Set
Actual Time 6:12 AM CDT 8:24 PM CDT
Civil Twilight 5:43 AM CDT 8:53 PM CDT
Nautical Twilight 5:08 AM CDT 9:29 PM CDT
Astronomical Twilight 4:29 AM CDT 10:08 PM CDT
Moon 12:15 AM CDT (5/19) 11:08 AM CDT (5/19)
Length of Visible Light 15h 10m
Length of Day
14h 12m
Waning Gibbous, 71% of the Moon is Illuminated
May 19
Waning Gibbous
May 21
Last Quarter
May 28
New
Jun 5
First Quarter
Jun 12
Full

Hourly Weather History & Observations

Time (CDT) Temp. Heat Index Dew Point Humidity Pressure Visibility Wind Dir Wind Speed Gust Speed Precip Events Conditions
12:15 AM 60.8 °F - 55.4 °F 82% 30.04 in 10.0 mi SE 9.2 mph - N/A   Clear
12:35 AM 60.8 °F - 55.4 °F 82% 30.04 in 10.0 mi SE 8.1 mph - N/A   Clear
1:15 AM 59.0 °F - 55.4 °F 88% 30.03 in 10.0 mi SE 9.2 mph - N/A   Clear
1:35 AM 59.0 °F - 55.4 °F 88% 30.03 in 7.0 mi SE 11.5 mph - N/A   Clear
1:55 AM 59.0 °F - 55.4 °F 88% 30.02 in 7.0 mi SE 10.4 mph - N/A   Clear
2:15 AM 59.0 °F - 55.4 °F 88% 30.01 in 7.0 mi SE 10.4 mph - N/A   Clear
2:35 AM 59.0 °F - 55.4 °F 88% 30.01 in 7.0 mi SE 11.5 mph - N/A   Clear
2:55 AM 59.0 °F - 55.4 °F 88% 30.00 in 7.0 mi SE 11.5 mph - N/A   Clear
3:15 AM 59.0 °F - 55.4 °F 88% 30.00 in 7.0 mi SE 11.5 mph - N/A   Clear
3:35 AM 59.0 °F - 55.4 °F 88% 30.00 in 7.0 mi SE 11.5 mph - N/A   Clear
3:55 AM 59.0 °F - 55.4 °F 88% 30.00 in 7.0 mi SE 10.4 mph - N/A   Clear
4:35 AM 59.0 °F - 55.4 °F 88% 30.00 in 5.0 mi SE 11.5 mph 17.3 mph N/A   Clear
4:55 AM 59.0 °F - 55.4 °F 88% 30.00 in 5.0 mi SE 10.4 mph - N/A   Clear
5:15 AM 59.0 °F - 55.4 °F 88% 29.99 in 5.0 mi SE 11.5 mph - N/A   Clear
5:35 AM 59.0 °F - 55.4 °F 88% 29.99 in 5.0 mi SE 11.5 mph - N/A   Clear
5:55 AM 59.0 °F - 55.4 °F 88% 29.99 in 5.0 mi SE 11.5 mph 16.1 mph N/A   Clear
6:15 AM 59.0 °F - 55.4 °F 88% 29.99 in 4.0 mi SSE 9.2 mph - N/A   Clear
6:35 AM 59.0 °F - 57.2 °F 94% 30.00 in 5.0 mi SSE 12.7 mph - N/A   Clear
6:55 AM 60.8 °F - 59.0 °F 94% 30.00 in 5.0 mi SSE 11.5 mph - N/A   Clear
7:15 AM 60.8 °F - 59.0 °F 94% 30.00 in 7.0 mi SSE 16.1 mph 21.9 mph N/A   Clear
7:35 AM 62.6 °F - 59.0 °F 88% 30.00 in 7.0 mi SSE 13.8 mph 19.6 mph N/A   Clear
9:35 AM 69.8 °F - 60.8 °F 73% 29.98 in 10.0 mi South 20.7 mph 31.1 mph N/A   Clear
9:55 AM 69.8 °F - 59.0 °F 68% 29.98 in 10.0 mi South 21.9 mph 32.2 mph N/A   Clear
10:15 AM 69.8 °F - 59.0 °F 68% 29.98 in 10.0 mi South 24.2 mph 33.4 mph N/A   Clear
10:35 AM 71.6 °F - 59.0 °F 64% 29.97 in 10.0 mi South 21.9 mph 28.8 mph N/A   Clear
10:55 AM 71.6 °F - 60.8 °F 69% 29.96 in 10.0 mi South 21.9 mph 29.9 mph N/A   Clear
11:15 AM 73.4 °F - 59.0 °F 61% 29.96 in 10.0 mi South 23.0 mph 29.9 mph N/A   Clear
11:35 AM 73.4 °F - 59.0 °F 61% 29.94 in 10.0 mi South 20.7 mph 29.9 mph N/A   Clear
11:55 AM 75.2 °F - 55.4 °F 50% 29.93 in 10.0 mi South 28.8 mph 33.4 mph N/A   Clear
12:15 PM 77.0 °F - 57.2 °F 50% 29.93 in 10.0 mi South 23.0 mph 33.4 mph N/A   Clear
12:35 PM 77.0 °F - 55.4 °F 47% 29.91 in 10.0 mi South 24.2 mph 32.2 mph N/A   Clear
12:55 PM 77.0 °F - 55.4 °F 47% 29.91 in 10.0 mi South 25.3 mph 33.4 mph N/A   Clear
1:15 PM 77.0 °F - 55.4 °F 47% 29.90 in 10.0 mi South 25.3 mph 35.7 mph N/A   Clear
1:35 PM 78.8 °F - 55.4 °F 44% 29.89 in 10.0 mi South 21.9 mph 31.1 mph N/A   Clear
1:55 PM 78.8 °F - 57.2 °F 47% 29.89 in 10.0 mi South 21.9 mph 29.9 mph N/A   Clear
2:15 PM 78.8 °F - 57.2 °F 47% 29.89 in 10.0 mi South 25.3 mph 35.7 mph N/A   Clear
2:35 PM 78.8 °F - 59.0 °F 51% 29.89 in 10.0 mi South 21.9 mph 31.1 mph N/A   Clear
3:15 PM 78.8 °F - 59.0 °F 51% 29.88 in 10.0 mi South 20.7 mph 34.5 mph N/A   Clear
3:35 PM 78.8 °F - 59.0 °F 51% 29.87 in 10.0 mi South 21.9 mph 34.5 mph N/A   Clear
3:55 PM 78.8 °F - 59.0 °F 51% 29.87 in 10.0 mi South 25.3 mph 34.5 mph N/A   Clear
4:15 PM 78.8 °F - 59.0 °F 51% 29.87 in 10.0 mi South 17.3 mph 34.5 mph N/A   Clear
4:35 PM 80.6 °F 81.1 °F 59.0 °F 48% 29.87 in 10.0 mi SSW 20.7 mph 29.9 mph N/A   Clear
4:55 PM 78.8 °F - 59.0 °F 51% 29.87 in 10.0 mi South 19.6 mph 31.1 mph N/A   Clear
5:15 PM 78.8 °F - 59.0 °F 51% 29.86 in 10.0 mi South 25.3 mph 34.5 mph N/A   Clear
5:55 PM 78.8 °F - 59.0 °F 51% 29.86 in 10.0 mi South 21.9 mph 33.4 mph N/A   Clear
6:15 PM 78.8 °F - 59.0 °F 51% 29.87 in 10.0 mi South 21.9 mph 28.8 mph N/A   Clear
6:35 PM 77.0 °F - 59.0 °F 54% 29.86 in 10.0 mi South 25.3 mph 29.9 mph N/A   Clear
6:55 PM 77.0 °F - 59.0 °F 54% 29.86 in 10.0 mi South 21.9 mph 31.1 mph N/A   Clear
7:15 PM 77.0 °F - 59.0 °F 54% 29.86 in 10.0 mi South 21.9 mph 29.9 mph N/A   Clear
7:35 PM 77.0 °F - 59.0 °F 54% 29.86 in 10.0 mi South 18.4 mph 26.5 mph N/A   Clear
7:55 PM 75.2 °F - 59.0 °F 57% 29.86 in 10.0 mi South 20.7 mph 28.8 mph N/A   Clear
8:15 PM 73.4 °F - 59.0 °F 61% 29.87 in 10.0 mi South 16.1 mph 25.3 mph N/A   Clear
8:35 PM 73.4 °F - 59.0 °F 61% 29.87 in 10.0 mi South 17.3 mph 24.2 mph N/A   Clear
8:55 PM 73.4 °F - 59.0 °F 61% 29.88 in 10.0 mi South 16.1 mph 24.2 mph N/A   Clear
9:15 PM 73.4 °F - 59.0 °F 61% 29.88 in 10.0 mi South 16.1 mph 21.9 mph N/A   Clear
9:35 PM 71.6 °F - 59.0 °F 64% 29.88 in 10.0 mi South 17.3 mph 21.9 mph N/A   Clear
9:55 PM 71.6 °F - 60.8 °F 69% 29.88 in 10.0 mi South 16.1 mph 23.0 mph N/A   Clear
10:15 PM 71.6 °F - 60.8 °F 69% 29.89 in 10.0 mi South 15.0 mph 21.9 mph N/A   Clear
10:35 PM 71.6 °F - 60.8 °F 69% 29.90 in 10.0 mi South 13.8 mph 23.0 mph N/A   Clear
10:55 PM 69.8 °F - 60.8 °F 73% 29.89 in 10.0 mi South 15.0 mph 24.2 mph N/A   Clear
11:15 PM 69.8 °F - 60.8 °F 73% 29.89 in 10.0 mi South 13.8 mph 20.7 mph N/A   Clear
11:35 PM 69.8 °F - 60.8 °F 73% 29.89 in 10.0 mi South 13.8 mph 20.7 mph N/A   Clear
11:55 PM 69.8 °F - 60.8 °F 73% 29.89 in 10.0 mi South 12.7 mph 20.7 mph N/A   Clear